Location: Unspecified
(0.0000°N, 0.0000°E)
Time: 14:02:01
(UTC+00:00)

Courier 1B - Pass Details

Date: 14 February 2026
Orbit: 962 x 1208 km, 28.3° (Epoch: 16 March)

Event Time Altitude Azimuth Distance (km) Brightness Sun altitude
Exits shadow 05:10:30 20° 301° (WNW) 2,342 8.9 -15.5°
Maximum altitude 05:15:57 89° 28° (NNE) 1,082 7.7 -14.2°
Drops below altitude 10° 05:22:54 10° 120° (ESE) 2,824 11.2 -12.5°
Sets 05:25:31 0° 120° (ESE) 3,744 12.2 -11.8°
